Wind_Speed
7 8 9 4 2 3 10 12 9 9 7 7 8 8 10 4 3 5 8 11 17 17 15 16 14 12 10 10 12 11 11 10 12 13 12 11 13 11 12 15 16 15 15 15 16 13 12 14 15
7 6 5 5 1 2 11 9 9 7 8 8 7 11 9 15 12 13 12 11 12 13 17 17 15 15 11 9 10 10 9 11 13 14 12 13 14 14 14 15 15 16 16 16 15 15 14 14 16
5 5 3 8 13 10 12 8 8 8 9 6 4 8 5 11 9 9 8 11 14 12 13 13 14 15 12 10 12 10 9 11 14 15 16 16 16 15 15 15 15 16 15 16 16 15 16 17 18
6 2 1 6 9 13 11 9 8 8 7 4 9 8 12 11 11 14 10 10 10 9 9 11 13 14 15 14 15 10 8 11 14 17 17 17 17 17 16 16 15 14 14 16 17 17 18 19 20
1 4 11 2 11 12 11 8 6 6 6 8 9 11 9 12 16 15 15 18 10 6 6 10 11 13 16 18 14 12 8 12 16 17 17 17 17 17 16 16 14 14 16 18 19 19 20 20 19
5 5 13 10 12 12 10 8 7 7 8 9 12 14 12 13 15 17 15 9 14 5 3 9 13 13 16 17 16 11 9 19 18 17 16 17 18 18 16 14 14 14 17 18 19 19 20 19 19
7 9 12 16 16 15 11 8 12 8 8 13 12 11 14 15 14 16 17 11 15 14 16 11 12 15 15 18 20 20 16 15 24 17 17 18 19 17 14 13 14 15 18 18 19 20 19 19 18
4 4 8 6 7 11 9 9 12 9 12 11 11 3 16 16 15 14 16 12 9 14 17 11 13 14 15 14 16 22 19 27 27 19 22 15 15 13 14 13 14 15 17 19 20 19 18 18 16
7 7 8 4 7 11 11 9 9 8 13 8 4 8 17 13 14 15 14 14 11 10 12 4 7 12 15 18 16 17 18 19 12 16 19 14 12 12 13 14 14 16 17 19 19 18 18 18 15
5 3 7 2 12 14 15 12 12 9 9 7 11 14 9 15 14 15 13 12 11 9 9 16 6 5 16 17 22 21 24 22 18 15 12 14 13 14 14 14 14 16 18 18 17 17 18 17 15
5 5 1 0 10 16 16 8 11 13 10 6 11 16 12 14 15 13 13 11 10 12 8 16 11 8 5 9 16 22 25 24 16 14 13 14 17 15 14 12 14 17 16 17 16 17 16 15 11
4 2 2 4 10 11 14 12 10 11 11 8 12 13 15 14 14 13 13 12 12 13 12 11 10 12 7 3 18 21 17 17 15 14 13 13 14 13 12 9 13 17 13 15 15 8 14 13 11
2 2 6 4 9 12 13 16 11 3 9 10 14 15 15 14 14 12 13 14 12 10 10 7 11 10 11 15 5 6 12 11 13 13 15 13 11 16 12 16 11 11 12 9 15 14 12 10 8
3 5 6 5 5 11 13 15 16 9 11 12 15 15 13 13 12 15 14 14 12 12 12 12 10 11 12 12 13 15 9 10 10 12 13 17 11 12 9 13 9 9 10 8 9 13 9 8 5
7 7 8 6 4 4 14 20 16 17 14 13 14 15 14 14 15 13 13 14 13 12 13 10 10 11 10 11 13 14 9 7 9 10 13 13 12 16 12 12 12 10 17 12 12 11 12 3 4
8 9 5 9 10 9 11 22 13 8 17 17 16 17 15 14 13 13 12 12 14 14 11 10 11 11 12 12 12 13 10 10 10 12 13 14 16 12 10 11 11 11 6 6 7 9 6 7 4
10 7 7 9 6 8 10 5 5 8 16 18 15 16 17 17 15 12 11 12 14 14 10 12 14 14 14 13 14 13 14 15 13 11 8 14 12 13 15 6 11 12 9 9 6 4 12 6 6
13 5 4 7 9 9 8 7 9 10 20 22 22 18 16 14 16 13 12 13 13 12 11 11 16 17 15 14 13 15 11 12 12 12 13 14 14 13 11 11 9 11 8 5 13 15 11 11 7
5 9 3 4 4 6 8 12 8 13 17 17 19 20 16 17 21 17 14 15 15 11 12 11 14 19 17 15 15 14 11 12 11 13 15 14 13 13 12 8 9 8 13 14 14 5 6 8 10
6 1 1 2 3 6 7 10 10 12 10 16 18 26 21 16 23 16 16 16 13 9 13 11 15 18 19 16 16 14 15 11 11 14 14 13 12 13 14 13 11 11 8 7 8 11 10 7 9
12 9 4 3 4 7 6 12 15 11 12 13 20 21 21 18 22 18 16 15 16 16 10 10 13 16 19 21 20 21 18 20 18 14 13 14 12 13 14 12 13 10 8 4 9 10 11 13 12
19 12 8 6 9 3 15 5 13 13 14 15 16 17 20 25 23 18 21 17 17 19 17 12 11 13 18 21 23 23 18 17 14 14 10 10 13 12 14 14 12 11 13 11 9 11 13 16 5
16 7 6 8 12 14 12 6 7 15 13 16 18 17 19 18 22 25 25 21 18 20 19 14 13 14 16 19 23 25 21 15 17 14 17 14 13 11 12 14 13 12 12 12 13 11 13 13 14
18 9 9 10 15 14 13 10 16 14 9 13 12 13 16 22 21 23 21 25 20 17 18 21 12 12 15 18 22 25 25 22 19 17 17 15 13 14 14 13 13 13 13 11 13 13 13 15 12
19 17 19 13 14 9 6 7 8 11 6 5 8 12 15 17 17 23 21 27 27 21 22 20 13 12 14 17 21 24 28 26 23 20 19 14 10 10 14 14 14 16 16 15 14 13 15 16 16
22 23 20 7 4 12 6 7 8 10 8 8 7 8 8 10 14 19 21 25 28 27 25 21 16 14 12 14 18 18 26 29 26 24 18 18 15 14 19 19 16 15 14 11 11 10 12 17 18
19 26 23 9 24 16 16 6 9 11 7 6 7 7 6 9 12 14 19 26 27 29 27 25 21 17 15 13 16 19 20 28 28 25 22 18 19 17 22 15 17 15 13 15 15 13 13 16 15
12 15 17 18 10 11 8 8 6 10 9 9 9 6 6 11 11 12 16 19 27 30 27 27 26 21 17 15 15 18 20 23 26 27 21 20 24 18 21 15 19 15 14 16 14 13 13 15 15
17 15 17 16 16 9 9 10 11 12 9 10 9 9 6 5 11 12 11 14 21 24 32 33 30 26 22 20 16 16 18 23 27 29 27 25 20 17 22 21 18 16 17 18 16 15 15 10 15
15 17 17 15 16 13 16 5 6 8 8 8 13 11 10 14 15 14 15 15 18 24 30 33 35 33 28 23 22 19 17 20 25 26 26 26 26 24 22 20 19 18 18 18 16 17 17 18 18
Wind_Direction
131 134 124 131 197 98 75 94 100 105 100 97 81 80 60 61 16 139 151 182 162 173 172 176 172 165 158 154 165 159 148 138 126 113 115 119 121 122 121 114 119 117 112 124 122 117 107 103 101
135 124 143 176 147 130 80 92 99 95 120 123 94 89 62 67 84 112 159 164 169 172 179 184 186 183 174 168 163 161 154 145 130 126 117 117 118 125 121 119 120 118 118 118 116 110 106 107 102
144 134 132 258 117 102 102 104 112 100 117 104 95 91 99 107 95 132 159 154 164 173 194 186 194 197 196 187 178 162 130 131 123 121 114 117 121 124 122 121 119 117 118 115 112 111 111 108 105
145 94 269 256 96 73 103 109 106 101 122 117 103 85 112 104 110 127 132 131 150 182 202 192 197 204 202 195 183 169 143 126 133 122 118 117 120 121 123 122 114 117 119 115 115 114 114 112 107
193 225 264 306 109 104 107 110 104 120 126 132 113 126 112 113 120 118 102 89 124 198 200 191 191 196 195 189 185 173 163 153 138 128 125 125 122 123 119 114 119 118 111 117 117 116 115 110 109
240 235 262 196 157 135 127 104 111 114 128 123 128 124 126 129 119 116 114 128 119 91 116 165 177 195 194 191 187 154 147 163 142 129 131 130 126 121 114 119 120 112 118 120 118 120 113 113 106
310 268 247 239 169 145 139 127 117 103 113 129 127 129 142 139 134 125 124 139 111 95 89 105 144 179 193 199 193 169 123 146 156 139 134 131 120 120 128 130 122 117 120 121 122 119 115 110 109
302 265 236 350 126 136 143 142 117 131 134 141 144 151 156 155 144 138 126 135 106 117 97 96 95 116 111 135 157 174 145 137 138 159 128 146 147 130 138 136 129 125 126 126 123 119 114 112 109
344 300 156 241 211 173 158 155 132 130 122 132 102 156 158 153 149 140 140 139 148 121 90 66 76 92 103 101 110 127 135 153 142 124 130 138 136 140 143 140 129 128 128 125 124 119 117 112 105
312 332 11 286 217 201 164 168 133 138 146 120 134 158 171 153 148 149 141 148 150 145 150 139 186 179 138 120 111 112 109 122 128 125 136 141 141 138 136 136 130 129 131 128 125 123 125 119 104
327 3 21 351 167 179 167 132 142 154 151 164 153 149 153 152 149 154 149 159 158 146 163 162 140 160 117 133 133 112 108 118 121 135 138 124 123 134 136 135 131 131 135 132 133 132 144 119 139
276 5 114 141 173 179 209 167 159 172 160 149 162 156 159 155 153 162 160 160 178 169 150 190 165 171 143 338 126 111 117 127 132 127 123 133 130 120 115 116 145 140 148 146 105 145 134 126 113
13 90 124 133 190 179 173 171 168 153 131 146 161 152 153 156 164 166 170 172 177 176 172 158 188 174 160 133 117 91 107 114 113 132 144 134 132 140 151 121 123 151 122 154 144 149 144 127 118
144 144 126 135 215 218 184 177 165 156 150 153 161 161 161 166 169 176 176 175 179 176 167 181 172 172 170 165 157 127 132 134 139 139 145 136 148 118 122 107 109 138 136 146 163 138 137 115 148
141 141 132 120 139 167 187 178 180 150 161 159 163 169 163 163 169 175 180 180 178 180 175 177 173 171 171 170 162 147 147 132 153 156 151 142 134 133 142 155 129 166 181 166 154 151 120 166 152
215 217 156 129 123 131 132 188 196 122 172 164 168 181 170 170 173 175 176 177 182 174 186 185 182 183 174 176 173 145 153 161 158 168 156 156 165 150 138 119 146 153 120 154 180 136 177 175 168
192 201 132 124 156 162 144 195 193 174 179 167 175 179 188 178 188 185 187 181 194 194 205 201 198 197 181 179 176 166 180 163 165 166 185 170 167 168 158 143 192 134 162 178 147 243 164 234 174
282 312 116 151 163 184 186 204 204 180 182 197 166 184 189 189 185 196 195 195 205 210 209 221 206 202 191 188 185 165 204 169 174 168 203 177 185 187 187 186 170 148 166 199 199 190 214 180 193
189 93 79 95 171 170 198 197 195 189 205 233 161 184 195 207 188 201 190 212 215 205 210 227 223 203 201 195 190 188 187 186 179 183 190 186 189 195 199 192 183 182 181 197 213 168 224 210 206
227 237 66 102 171 205 164 196 205 180 168 204 204 181 195 201 226 202 210 213 224 232 230 238 220 212 206 204 203 190 185 201 190 195 193 196 201 205 209 215 208 193 198 208 206 191 184 187 221
235 218 204 272 241 225 210 190 180 201 193 193 201 193 207 202 202 205 228 223 220 241 253 227 230 220 215 213 212 203 200 187 195 210 196 203 211 210 214 214 221 208 212 228 219 204 200 205 228
243 230 220 255 256 186 248 223 196 183 199 204 199 208 210 213 218 193 194 222 228 222 250 230 230 223 215 213 219 210 206 206 204 191 213 218 208 216 221 219 220 226 224 229 221 224 209 213 163
236 212 235 250 256 219 240 146 266 177 199 205 205 214 219 230 215 213 224 220 230 222 237 237 235 235 225 214 216 205 206 206 210 201 223 212 215 221 223 218 223 221 226 234 237 239 221 214 197
223 243 238 242 241 257 214 253 198 172 200 174 199 204 216 230 232 229 233 210 213 230 233 244 239 237 231 216 215 214 212 210 205 202 225 216 223 224 225 225 219 215 218 230 239 236 234 230 233
212 218 227 221 223 240 172 254 168 142 185 160 182 194 206 213 234 231 231 221 217 214 228 228 237 245 237 223 215 218 219 216 214 214 196 213 222 240 257 232 235 229 233 238 235 237 241 237 246
209 215 236 208 332 184 178 236 200 165 176 172 188 189 225 224 220 222 233 234 226 217 222 222 239 235 241 233 221 218 219 212 213 213 217 201 195 231 241 237 235 232 229 233 231 239 242 244 248
203 224 239 208 253 225 207 216 190 199 199 207 195 216 221 259 237 225 226 227 236 220 225 223 239 230 236 235 229 220 223 215 214 211 213 222 191 208 252 248 245 241 248 237 233 240 245 249 256
234 215 238 231 254 259 296 190 142 175 198 210 210 210 227 266 259 244 230 228 226 223 221 228 235 234 232 236 228 226 217 218 213 213 215 210 206 206 223 247 240 243 239 246 249 248 254 254 256
209 232 249 270 276 297 232 229 192 193 183 206 216 211 221 232 269 261 247 214 225 225 228 227 224 238 227 232 226 227 219 217 222 227 226 227 220 225 232 229 238 241 255 252 255 256 250 242 253
239 220 224 228 233 257 292 68 156 179 201 216 209 217 246 266 268 264 256 249 226 223 230 231 233 234 233 227 229 232 224 223 225 228 228 227 232 236 240 237 243 245 246 250 258 258 251 246 249
Height
3162 3162 3163 3162 3167 3163 3162 3164 3165 3167 3167 3168 3168 3167 3168 3166 3166 3169 3166 3167 3170 3172 3172 3176 3179 3180 3181 3183 3183 3185 3186 3186 3187 3187 3189 3190 3191 3193 3194 3195 3195 3196 3197 3197 3200 3202 3203 3203 3203
3163 3163 3163 3162 3163 3160 3165 3166 3167 3168 3169 3170 3170 3169 3169 3167 3166 3165 3167 3169 3171 3173 3175 3177 3179 3181 3182 3184 3185 3186 3187 3187 3188 3189 3190 3192 3192 3195 3196 3197 3198 3198 3199 3201 3202 3204 3204 3206 3206
3164 3163 3163 3161 3154 3162 3165 3169 3170 3171 3171 3172 3172 3171 3172 3172 3171 3169 3168 3170 3172 3173 3175 3177 3179 3181 3182 3184 3185 3187 3188 3187 3189 3191 3192 3194 3195 3197 3199 3200 3200 3201 3202 3203 3205 3206 3207 3208 3208
3164 3166 3164 3152 3160 3163 3167 3170 3172 3172 3173 3173 3173 3172 3173 3172 3173 3172 3170 3172 3174 3173 3174 3177 3178 3180 3181 3184 3185 3187 3188 3190 3192 3194 3195 3197 3199 3200 3201 3202 3203 3203 3205 3206 3207 3208 3210 3210 3211
3166 3166 3163 3161 3162 3167 3169 3172 3173 3173 3174 3174 3173 3174 3173 3172 3173 3173 3173 3175 3178 3175 3175 3176 3177 3179 3180 3183 3185 3188 3190 3192 3194 3195 3197 3200 3201 3203 3204 3204 3204 3206 3208 3209 3210 3211 3212 3213 3215
3168 3167 3163 3161 3162 3165 3170 3173 3173 3174 3174 3174 3176 3176 3176 3174 3175 3178 3181 3180 3177 3177 3174 3174 3176 3178 3180 3183 3185 3188 3189 3192 3195 3196 3199 3201 3203 3204 3205 3207 3208 3209 3210 3212 3212 3215 3215 3217 3218
3166 3163 3161 3158 3157 3163 3169 3173 3173 3176 3177 3177 3177 3177 3177 3176 3176 3178 3184 3184 3181 3179 3177 3177 3177 3179 3181 3181 3184 3187 3189 3191 3193 3197 3199 3203 3203 3205 3208 3209 3211 3213 3213 3214 3216 3217 3219 3220 3222
3166 3165 3159 3159 3162 3164 3169 3172 3174 3176 3178 3177 3179 3178 3178 3177 3178 3179 3184 3185 3183 3184 3181 3180 3181 3182 3181 3181 3182 3184 3190 3193 3193 3194 3198 3205 3207 3208 3210 3211 3214 3215 3216 3218 3219 3221 3223 3224 3226
3166 3161 3157 3162 3162 3165 3170 3173 3175 3176 3177 3179 3179 3179 3178 3177 3179 3182 3183 3189 3184 3184 3184 3181 3183 3185 3185 3185 3185 3187 3190 3194 3193 3197 3201 3206 3208 3210 3212 3214 3216 3218 3219 3220 3223 3224 3227 3228 3230
3169 3164 3165 3165 3164 3166 3170 3168 3174 3178 3179 3179 3179 3178 3178 3179 3181 3184 3187 3189 3190 3189 3188 3186 3187 3184 3182 3188 3186 3191 3193 3195 3199 3203 3204 3207 3210 3211 3214 3216 3219 3220 3221 3223 3226 3228 3230 3231 3232
3169 3166 3167 3164 3165 3166 3168 3169 3174 3177 3179 3180 3180 3178 3179 3181 3184 3187 3190 3192 3192 3193 3190 3189 3188 3183 3181 3187 3190 3193 3197 3196 3200 3203 3208 3210 3212 3215 3216 3218 3221 3222 3224 3226 3229 3230 3232 3232 3237
3167 3166 3167 3164 3164 3167 3167 3171 3175 3174 3174 3181 3180 3181 3181 3183 3188 3190 3193 3194 3194 3192 3191 3190 3189 3188 3188 3190 3168 3187 3200 3202 3201 3204 3208 3213 3215 3218 3219 3223 3223 3224 3227 3228 3231 3233 3233 3235 3236
3169 3167 3166 3165 3163 3166 3167 3171 3174 3175 3177 3181 3181 3182 3184 3187 3189 3191 3193 3192 3191 3191 3194 3193 3191 3190 3192 3198 3199 3186 3203 3203 3203 3207 3212 3215 3219 3219 3223 3222 3226 3229 3229 3231 3232 3234 3235 3238 3239
3168 3167 3165 3165 3163 3164 3167 3170 3173 3176 3180 3182 3183 3184 3186 3188 3189 3191 3192 3191 3191 3192 3196 3193 3193 3193 3193 3196 3201 3205 3206 3205 3206 3209 3214 3216 3220 3222 3222 3224 3227 3230 3234 3235 3234 3235 3238 3241 3241
3166 3165 3161 3164 3164 3161 3164 3169 3170 3174 3179 3181 3183 3185 3187 3188 3190 3190 3191 3191 3192 3193 3193 3193 3194 3195 3195 3196 3198 3202 3205 3206 3209 3212 3215 3218 3219 3221 3223 3226 3231 3232 3230 3232 3235 3237 3240 3243 3242
3165 3162 3148 3160 3163 3166 3168 3171 3169 3166 3177 3179 3183 3183 3187 3188 3190 3190 3191 3192 3192 3194 3193 3194 3196 3197 3198 3198 3200 3204 3207 3211 3214 3214 3216 3219 3220 3222 3225 3226 3229 3230 3234 3237 3239 3241 3243 3244 3245
3163 3161 3158 3159 3165 3166 3168 3169 3170 3173 3176 3177 3181 3183 3185 3187 3188 3190 3192 3193 3192 3192 3193 3194 3196 3197 3200 3201 3202 3204 3207 3212 3215 3217 3218 3218 3220 3223 3226 3229 3228 3230 3236 3236 3240 3240 3241 3244 3245
3155 3163 3159 3160 3165 3167 3167 3168 3168 3168 3171 3169 3175 3180 3184 3186 3188 3190 3191 3192 3192 3192 3193 3194 3195 3196 3199 3201 3203 3205 3208 3211 3214 3218 3219 3219 3220 3223 3225 3227 3228 3229 3235 3238 3236 3238 3240 3242 3245
3166 3161 3160 3162 3164 3165 3166 3167 3167 3168 3167 3166 3167 3178 3183 3184 3186 3187 3191 3192 3192 3191 3192 3193 3194 3195 3198 3201 3203 3205 3208 3210 3214 3217 3215 3218 3219 3222 3224 3227 3228 3230 3231 3232 3235 3238 3240 3241 3242
3161 3161 3161 3164 3164 3164 3164 3165 3165 3166 3167 3168 3173 3176 3181 3185 3181 3185 3189 3188 3190 3189 3190 3191 3192 3195 3197 3200 3203 3205 3208 3212 3213 3215 3215 3217 3219 3221 3224 3226 3227 3229 3231 3232 3234 3237 3240 3243 3242
3159 3159 3161 3164 3164 3165 3165 3163 3164 3165 3167 3167 3171 3174 3179 3180 3181 3182 3184 3187 3188 3188 3188 3189 3191 3192 3195 3197 3200 3202 3205 3208 3211 3214 3214 3216 3218 3221 3223 3225 3227 3229 3231 3234 3234 3235 3237 3237 3239
3156 3159 3160 3164 3164 3163 3161 3159 3152 3164 3168 3167 3168 3170 3174 3176 3177 3176 3182 3186 3187 3186 3187 3187 3189 3191 3192 3195 3197 3200 3203 3206 3211 3212 3214 3215 3217 3219 3221 3224 3226 3228 3230 3230 3232 3234 3235 3236 3240
3158 3160 3160 3161 3161 3159 3160 3154 3155 3154 3166 3166 3168 3170 3172 3172 3176 3177 3179 3182 3185 3184 3185 3184 3185 3188 3189 3192 3194 3198 3201 3205 3207 3212 3214 3215 3216 3218 3220 3222 3223 3226 3228 3229 3231 3232 3233 3235 3238
3158 3159 3159 3159 3156 3152 3146 3150 3156 3157 3159 3154 3164 3168 3171 3167 3172 3173 3175 3177 3173 3180 3183 3183 3184 3186 3187 3190 3192 3196 3199 3202 3206 3209 3212 3212 3215 3216 3218 3220 3221 3223 3225 3227 3229 3230 3232 3234 3235
3156 3157 3151 3150 3146 3142 3149 3151 3149 3154 3160 3161 3164 3167 3169 3171 3171 3169 3172 3173 3176 3180 3181 3182 3181 3183 3185 3187 3189 3193 3196 3200 3202 3206 3209 3213 3217 3219 3217 3219 3220 3221 3223 3225 3226 3228 3230 3232 3234
3151 3151 3142 3148 3144 3146 3148 3147 3147 3154 3158 3160 3162 3164 3163 3165 3168 3170 3170 3169 3171 3174 3178 3178 3179 3181 3183 3185 3186 3188 3192 3196 3200 3203 3206 3210 3216 3219 3217 3216 3218 3219 3221 3222 3224 3225 3227 3229 3230
3148 3148 3143 3147 3147 3143 3151 3148 3149 3152 3156 3159 3161 3161 3162 3162 3163 3166 3166 3167 3166 3170 3173 3175 3176 3179 3181 3182 3184 3185 3189 3193 3196 3200 3203 3206 3210 3215 3214 3215 3216 3217 3218 3220 3221 3222 3224 3225 3226
3143 3145 3144 3141 3144 3143 3135 3138 3143 3150 3153 3157 3160 3160 3160 3159 3159 3160 3162 3162 3163 3167 3170 3172 3172 3175 3177 3179 3180 3182 3185 3189 3193 3196 3200 3202 3205 3208 3210 3211 3213 3214 3215 3218 3218 3219 3220 3221 3222
3143 3143 3141 3139 3136 3131 3131 3136 3138 3144 3149 3154 3157 3158 3158 3157 3156 3157 3157 3160 3162 3163 3164 3166 3169 3171 3173 3176 3178 3180 3181 3185 3189 3192 3196 3199 3202 3201 3203 3207 3209 3210 3212 3213 3215 3216 3217 3217 3218
3137 3137 3138 3137 3139 3136 3133 3137 3141 3145 3148 3151 3154 3154 3153 3153 3153 3153 3154 3154 3156 3159 3159 3160 3164 3166 3169 3173 3175 3178 3180 3181 3184 3187 3190 3194 3197 3200 3201 3203 3204 3206 3207 3209 3211 3211 3213 3214 3215